FW6147 Weather Reports


time (UTC)temp
C
wind
direction
speed
KPH
gust
KPH
rain 1hr
cm
rain 24hr
cm
rain mn
cm
humidity
%
barometer
mb
20260510075555 22 278 11.3 22.5 0.00 0.00 0.00 18 1017.2
20260510075053 22 278 9.7 17.7 0.00 0.00 0.00 19 1017.3
20260510074556 21 313 8.0 16.1 0.00 0.00 0.00 20 1017.5
20260510074054 20 285 0.0 8.0 0.00 0.00 0.00 21 1017.6
20260510073553 20 0 0.0 0.0 0.00 0.00 0.00 22 1017.7
20260510073105 20 0 0.0 0.0 0.00 0.00 0.00 22 1017.9
20260510072555 19 0 0.0 0.0 0.00 0.00 0.00 24 1017.9
20260510072056 19 0 0.0 3.2 0.00 0.00 0.00 24 1017.7
20260510071556 19 0 0.0 3.2 0.00 0.00 0.00 25 1017.7
20260510071055 18 0 0.0 0.0 0.00 0.00 0.00 25 1017.5
20260510070556 19 0 0.0 0.0 0.00 0.00 0.00 24 1017.3
20260510070054 19 0 0.0 0.0 0.00 0.00 0.00 24 1017.2
20260510065556 19 0 0.0 0.0 0.00 0.00 0.00 24 1017.2
20260510065054 19 0 0.0 0.0 0.00 0.00 0.00 23 1017.2
20260510064554 19 0 0.0 0.0 0.00 0.00 0.00 23 1017.2
20260510064054 19 0 0.0 4.8 0.00 0.00 0.00 23 1017.1
20260510063555 20 0 0.0 4.8 0.00 0.00 0.00 23 1017.0
20260510063057 20 0 0.0 0.0 0.00 0.00 0.00 22 1017.0
20260510062555 20 0 0.0 1.6 0.00 0.00 0.00 22 1016.9
20260510062054 20 0 0.0 1.6 0.00 0.00 0.00 22 1016.9
20260510061555 20 0 0.0 0.0 0.00 0.00 0.00 22 1016.9
20260510061056 20 0 0.0 0.0 0.00 0.00 0.00 22 1016.8
20260510060553 20 0 0.0 0.0 0.00 0.00 0.00 22 1016.9
20260510060055 20 0 0.0 0.0 0.00 0.00 0.00 22 1016.8
20260510055554 20 0 0.0 0.0 0.00 0.00 0.00 22 1016.8
20260510055057 20 0 0.0 0.0 0.00 0.00 0.00 22 1016.9
20260510054557 20 0 0.0 0.0 0.00 0.00 0.00 22 1016.8
20260510054056 20 0 0.0 0.0 0.00 0.00 0.00 22 1016.6
20260510053554 21 0 0.0 0.0 0.00 0.00 0.00 21 1016.8
20260510053107 21 0 0.0 0.0 0.00 0.00 0.00 21 1016.7
20260510052553 21 0 0.0 0.0 0.00 0.00 0.00 21 1016.6
20260510052055 21 0 0.0 0.0 0.00 0.00 0.00 21 1016.7
20260510051608 21 0 0.0 0.0 0.00 0.00 0.00 21 1016.6
20260510051057 21 0 0.0 3.2 0.00 0.00 0.00 21 1016.6
20260510050554 21 0 0.0 3.2 0.00 0.00 0.00 21 1016.7
20260510050057 21 0 0.0 3.2 0.00 0.00 0.00 21 1016.7
20260510045555 21 0 0.0 0.0 0.00 0.00 0.00 21 1016.5
20260510045055 20 0 0.0 0.0 0.00 0.00 0.00 21 1016.5
20260510044557 20 0 0.0 0.0 0.00 0.00 0.00 22 1016.6
20260510044054 20 0 0.0 0.0 0.00 0.00 0.00 21 1016.5
20260510043557 21 0 0.0 0.0 0.00 0.00 0.00 21 1016.5
20260510043054 21 0 0.0 0.0 0.00 0.00 0.00 21 1016.6
20260510042555 21 0 0.0 0.0 0.00 0.00 0.00 21 1016.5
20260510042055 21 0 0.0 0.0 0.00 0.00 0.00 21 1016.4
20260510041556 21 0 0.0 0.0 0.00 0.00 0.00 21 1016.3
20260510041056 21 0 0.0 0.0 0.00 0.00 0.00 21 1016.4
20260510040556 21 0 0.0 0.0 0.00 0.00 0.00 21 1016.3
20260510040058 21 0 0.0 0.0 0.00 0.00 0.00 21 1016.2
20260510035555 21 0 0.0 0.0 0.00 0.00 0.00 20 1016.3
20260510035054 21 0 0.0 0.0 0.00 0.00 0.00 20 1016.2
20260510034554 22 0 0.0 0.0 0.00 0.00 0.00 20 1016.2
20260510034055 22 0 0.0 0.0 0.00 0.00 0.00 20 1016.1
20260510033554 22 0 0.0 0.0 0.00 0.00 0.00 20 1016.0
20260510033112 22 0 0.0 0.0 0.00 0.00 0.00 20 1016.0
20260510032557 22 0 0.0 0.0 0.00 0.00 0.00 20 1016.0
20260510032055 22 0 0.0 0.0 0.00 0.00 0.00 20 1015.9
20260510031554 22 0 0.0 0.0 0.00 0.00 0.00 20 1015.8
20260510031054 22 0 0.0 0.0 0.00 0.00 0.00 20 1015.8
20260510030554 22 0 0.0 0.0 0.00 0.00 0.00 21 1015.6
20260510030054 22 0 0.0 0.0 0.00 0.00 0.00 20 1015.5
20260510025554 22 0 0.0 0.0 0.00 0.00 0.00 20 1015.6
20260510025052 23 0 0.0 1.6 0.00 0.00 0.00 19 1015.5
20260510024601 23 0 0.0 1.6 0.00 0.00 0.00 19 1015.4
20260510024058 23 0 0.0 1.6 0.00 0.00 0.00 19 1015.3
20260510023554 23 0 0.0 0.0 0.00 0.00 0.00 18 1015.3
20260510023056 24 0 0.0 0.0 0.00 0.00 0.00 18 1015.1
20260510022555 24 0 0.0 0.0 0.00 0.00 0.00 18 1015.1
20260510022055 25 0 0.0 0.0 0.00 0.00 0.00 17 1015.0
20260510021552 25 0 0.0 0.0 0.00 0.00 0.00 17 1014.9
20260510021053 26 0 0.0 0.0 0.00 0.00 0.00 16 1014.8
20260510020555 26 0 0.0 0.0 0.00 0.00 0.00 16 1014.7
20260510020057 27 0 0.0 0.0 0.00 0.00 0.00 15 1014.6
20260510015552 27 0 0.0 3.2 0.00 0.00 0.00 14 1014.7
20260510015051 28 0 0.0 6.4 0.00 0.00 0.00 14 1014.6
20260510014556 28 0 0.0 8.0 0.00 0.00 0.00 13 1014.6
20260510014055 29 0 0.0 9.7 0.00 0.00 0.00 13 1014.5
20260510013556 29 0 1.6 16.1 0.00 0.00 0.00 13 1014.5
20260510013059 30 0 1.6 16.1 0.00 0.00 0.00 12 1014.5
20260510012558 30 0 4.8 16.1 0.00 0.00 0.00 12 1014.6
20260510012055 30 0 3.2 14.5 0.00 0.00 0.00 12 1014.5
20260510011556 30 273 3.2 19.3 0.00 0.00 0.00 12 1014.5
20260510011055 30 0 6.4 19.3 0.00 0.00 0.00 11 1014.4
20260510010554 30 327 6.4 19.3 0.00 0.00 0.00 11 1014.4
20260510010055 31 311 6.4 19.3 0.00 0.00 0.00 11 1014.5
20260510005554 31 271 3.2 19.3 0.00 0.00 0.00 11 1014.4
20260510005051 31 283 8.0 19.3 0.00 0.00 0.00 11 1014.4
20260510004559 31 0 3.2 16.1 0.00 0.00 0.00 11 1014.4
20260510004055 31 296 3.2 16.1 0.00 0.00 0.00 11 1014.4
20260510003555 31 269 1.6 16.1 0.00 0.00 0.00 11 1014.5
20260510003103 31 0 3.2 14.5 0.00 0.00 0.00 11 1014.5
20260510002551 31 0 3.2 17.7 0.00 0.00 0.00 11 1014.4
20260510002054 31 257 3.2 17.7 0.00 0.00 0.00 11 1014.5
20260510001557 31 295 3.2 16.1 0.00 0.00 0.00 10 1014.5
20260510001052 31 295 3.2 19.3 0.00 0.00 0.00 10 1014.5
20260510000552 31 0 8.0 19.3 0.00 0.00 0.00 10 1014.5
20260510000055 31 276 6.4 20.9 0.00 0.00 0.00 10 1014.4
20260509235555 32 322 8.0 20.9 0.00 0.00 0.00 10 1014.6
20260509235053 32 269 8.0 19.3 0.00 0.00 0.00 10 1014.5
20260509234559 32 0 1.6 11.3 0.00 0.00 0.00 10 1014.6
20260509234054 32 0 6.4 12.9 0.00 0.00 0.00 10 1014.5
20260509233558 32 0 3.2 12.9 0.00 0.00 0.00 10 1014.5
20260509233056 32 0 0.0 9.7 0.00 0.00 0.00 11 1014.6
20260509232557 32 0 0.0 9.7 0.00 0.00 0.00 10 1014.5
20260509232055 32 0 0.0 8.0 0.00 0.00 0.00 10 1014.6
20260509231559 32 0 0.0 20.9 0.00 0.00 0.00 10 1014.6
20260509231054 32 0 4.8 32.2 0.00 0.00 0.00 11 1014.7
20260509230556 32 304 12.9 32.2 0.00 0.00 0.00 10 1014.6
20260509225555 32 301 6.4 22.5 0.00 0.00 0.00 10 1014.7
20260509225054 32 262 3.2 19.3 0.00 0.00 0.00 11 1014.8
20260509224603 32 359 4.8 19.3 0.00 0.00 0.00 10 1014.7
20260509224055 32 0 9.7 19.3 0.00 0.00 0.00 10 1014.9
20260509223555 32 0 4.8 24.1 0.00 0.00 0.00 11 1015.0
20260509223102 32 314 6.4 24.1 0.00 0.00 0.00 10 1015.2
20260509222558 32 275 1.6 22.5 0.00 0.00 0.00 10 1015.2
20260509222054 32 0 6.4 25.7 0.00 0.00 0.00 10 1015.2
20260509221554 32 295 8.0 25.7 0.00 0.00 0.00 10 1015.3
20260509221058 32 348 8.0 25.7 0.00 0.00 0.00 10 1015.3
20260509220555 32 285 14.5 25.7 0.00 0.00 0.00 10 1015.4
20260509220057 32 301 8.0 19.3 0.00 0.00 0.00 10 1015.5
20260509215556 32 297 8.0 24.1 0.00 0.00 0.00 10 1015.6
20260509215056 32 281 6.4 24.1 0.00 0.00 0.00 11 1015.7
20260509214556 32 324 8.0 19.3 0.00 0.00 0.00 10 1015.8
20260509214059 33 240 0.0 11.3 0.00 0.00 0.00 10 1016.0
20260509213555 33 150 0.0 19.3 0.00 0.00 0.00 10 1015.9
20260509213058 33 0 1.6 24.1 0.00 0.00 0.00 11 1016.1
20260509212555 32 198 9.7 24.1 0.00 0.00 0.00 10 1016.2
20260509212056 32 310 4.8 16.1 0.00 0.00 0.00 9 1016.2
20260509211557 32 348 4.8 12.9 0.00 0.00 0.00 10 1016.3
20260509211054 32 286 1.6 12.9 0.00 0.00 0.00 10 1016.3
20260509210556 32 0 3.2 19.3 0.00 0.00 0.00 9 1016.4
20260509205556 32 302 4.8 20.9 0.00 0.00 0.00 11 1016.6
20260509205056 32 223 3.2 24.1 0.00 0.00 0.00 10 1016.6
20260509204556 31 0 8.0 24.1 0.00 0.00 0.00 11 1016.7
20260509204056 32 276 14.5 24.1 0.00 0.00 0.00 11 1016.8
20260509203554 31 318 0.0 19.3 0.00 0.00 0.00 12 1016.8
20260509203105 31 342 6.4 19.3 0.00 0.00 0.00 12 1016.9
20260509202555 31 312 8.0 20.9 0.00 0.00 0.00 10 1017.1
20260509202055 32 0 4.8 20.9 0.00 0.00 0.00 11 1017.1
20260509201556 32 297 9.7 20.9 0.00 0.00 0.00 11 1017.1
20260509201054 31 0 1.6 14.5 0.00 0.00 0.00 12 1017.2
20260509200554 31 0 0.0 22.5 0.00 0.00 0.00 11 1017.3
20260509200056 31 315 9.7 22.5 0.00 0.00 0.00 11 1017.4
20260509195557 31 316 8.0 22.5 0.00 0.00 0.00 12 1017.4
20260509195054 31 0 0.0 20.9 0.00 0.00 0.00 12 1017.4
20260509194556 31 260 8.0 20.9 0.00 0.00 0.00 12 1017.4
20260509194058 31 0 9.7 16.1 0.00 0.00 0.00 15 1017.4
20260509193552 31 35 3.2 16.1 0.00 0.00 0.00 14 1017.5
20260509193055 31 15 3.2 20.9 0.00 0.00 0.00 13 1017.6
20260509192552 30 360 9.7 20.9 0.00 0.00 0.00 17 1017.6
20260509192052 30 0 12.9 20.9 0.00 0.00 0.00 13 1017.6
20260509191552 30 10 11.3 19.3 0.00 0.00 0.00 14 1017.7
20260509191055 30 41 0.0 9.7 0.00 0.00 0.00 14 1017.7
20260509190555 30 53 3.2 9.7 0.00 0.00 0.00 13 1017.8
20260509190055 30 22 0.0 14.5 0.00 0.00 0.00 14 1017.8
20260509185555 30 0 3.2 14.5 0.00 0.00 0.00 14 1018.0
20260509185055 30 353 3.2 11.3 0.00 0.00 0.00 18 1018.0
20260509184554 30 0 1.6 12.9 0.00 0.00 0.00 13 1018.0
20260509184057 30 8 0.0 12.9 0.00 0.00 0.00 14 1018.0
20260509183557 30 360 1.6 9.7 0.00 0.00 0.00 15 1018.0
20260509183054 29 0 3.2 9.7 0.00 0.00 0.00 15 1018.1
20260509182555 29 0 0.0 12.9 0.00 0.00 0.00 14 1018.2
20260509182052 29 323 3.2 12.9 0.00 0.00 0.00 14 1018.3
20260509181607 29 0 1.6 9.7 0.00 0.00 0.00 14 1018.3
20260509181051 29 0 0.0 12.9 0.00 0.00 0.00 15 1018.4
20260509180552 29 11 3.2 12.9 0.00 0.00 0.00 17 1018.3
20260509180114 28 0 1.6 12.9 0.00 0.00 0.00 15 1018.6
20260509175552 28 28 4.8 12.9 0.00 0.00 0.00 16 1018.6
20260509175055 28 0 3.2 12.9 0.00 0.00 0.00 17 1018.6
20260509174555 28 0 0.0 12.9 0.00 0.00 0.00 15 1018.7
20260509174054 28 296 0.0 16.1 0.00 0.00 0.00 16 1018.7
20260509173555 28 319 0.0 16.1 0.00 0.00 0.00 16 1018.8
20260509173108 28 326 3.2 16.1 0.00 0.00 0.00 16 1018.9
20260509172556 28 0 0.0 14.5 0.00 0.00 0.00 17 1018.9
20260509172055 28 312 4.8 14.5 0.00 0.00 0.00 17 1018.8
20260509171554 27 0 1.6 12.9 0.00 0.00 0.00 17 1018.8
20260509171051 27 0 3.2 14.5 0.00 0.00 0.00 17 1018.8
20260509170552 27 347 4.8 14.5 0.00 0.00 0.00 17 1018.8
20260509170055 27 283 6.4 11.3 0.00 0.00 0.00 17 1018.8
20260509165554 27 358 0.0 9.7 0.00 0.00 0.00 18 1018.8
20260509165054 27 0 0.0 0.0 0.00 0.00 0.00 17 1018.7
20260509164554 27 0 0.0 9.7 0.00 0.00 0.00 20 1018.8
20260509164054 26 0 0.0 9.7 0.00 0.00 0.00 19 1018.6
20260509163556 26 31 0.0 8.0 0.00 0.00 0.00 20 1018.7
20260509163101 26 0 0.0 0.0 0.00 0.00 0.00 19 1018.7
20260509162555 26 0 0.0 8.0 0.00 0.00 0.00 20 1018.7
20260509162055 26 0 0.0 8.0 0.00 0.00 0.00 20 1018.7
20260509161603 26 0 0.0 6.4 0.00 0.00 0.00 21 1018.7
20260509161054 26 0 0.0 1.6 0.00 0.00 0.00 20 1018.7
20260509160554 25 0 0.0 8.0 0.00 0.00 0.00 20 1018.7
20260509160100 25 0 0.0 8.0 0.00 0.00 0.00 20 1018.7
20260509155556 25 0 0.0 9.7 0.00 0.00 0.00 21 1018.7
20260509155055 25 0 0.0 9.7 0.00 0.00 0.00 21 1018.7
20260509154612 25 0 0.0 9.7 0.00 0.00 0.00 22 1018.7
20260509154056 25 0 0.0 6.4 0.00 0.00 0.00 22 1018.8
20260509153559 25 50 0.0 8.0 0.00 0.00 0.00 23 1018.7
20260509153107 25 0 1.6 8.0 0.00 0.00 0.00 23 1018.7
20260509152555 25 0 0.0 9.7 0.00 0.00 0.00 22 1018.7
20260509152057 25 0 1.6 9.7 0.00 0.00 0.00 21 1018.6
20260509151602 25 0 3.2 11.3 0.00 0.00 0.00 22 1018.7
20260509151054 24 98 1.6 11.3 0.00 0.00 0.00 23 1018.7
20260509150557 24 96 3.2 11.3 0.00 0.00 0.00 23 1018.7
20260509150056 23 0 1.6 9.7 0.00 0.00 0.00 23 1018.7
20260509145555 23 0 3.2 9.7 0.00 0.00 0.00 23 1018.7
20260509145055 23 98 3.2 9.7 0.00 0.00 0.00 23 1018.7
20260509144556 23 113 3.2 11.3 0.00 0.00 0.00 25 1018.7
20260509144054 23 103 1.6 11.3 0.00 0.00 0.00 25 1018.8
20260509143556 23 100 6.4 11.3 0.00 0.00 0.00 25 1018.7
20260509143110 23 130 1.6 11.3 0.00 0.00 0.00 25 1018.7
20260509142554 22 115 4.8 9.7 0.00 0.00 0.00 26 1018.7
20260509142054 22 140 3.2 11.3 0.00 0.00 0.00 26 1018.7
20260509141557 22 0 6.4 11.3 0.00 0.00 0.00 26 1018.5
20260509141055 22 122 3.2 9.7 0.00 0.00 0.00 26 1018.6
20260509140554 21 135 0.0 8.0 0.00 0.00 0.00 26 1018.6
20260509140057 21 0 0.0 0.0 0.00 0.00 0.00 28 1018.6
20260509135557 20 0 0.0 0.0 0.00 0.00 0.00 30 1018.5
20260509135054 20 0 0.0 0.0 0.00 0.00 0.00 33 1018.5
20260509134558 18 0 0.0 0.0 0.00 0.00 0.00 36 1018.5
20260509134055 18 0 0.0 0.0 0.00 0.00 0.00 38 1018.4
20260509133554 17 0 0.0 0.0 0.00 0.00 0.00 38 1018.4
20260509133106 16 0 0.0 0.0 0.00 0.00 0.00 39 1018.3
20260509132555 16 0 0.0 0.0 0.00 0.00 0.00 42 1018.3
20260509132054 15 0 0.0 0.0 0.00 0.00 0.00 43 1018.3
20260509131557 15 0 0.0 0.0 0.00 0.00 0.00 43 1018.2
20260509131054 14 0 0.0 0.0 0.00 0.00 0.00 46 1018.2
20260509130554 13 0 0.0 0.0 0.00 0.00 0.00 45 1018.2
20260509130114 13 0 0.0 0.0 0.00 0.00 0.00 45 1018.2
20260509125557 14 0 0.0 9.7 0.00 0.00 0.00 42 1018.1
20260509125056 15 0 1.6 9.7 0.00 0.00 0.00 39 1018.1
20260509124558 15 0 3.2 9.7 0.00 0.00 0.00 37 1017.9
20260509124057 15 181 3.2 9.7 0.00 0.00 0.00 38 1017.8
20260509123557 15 0 0.0 9.7 0.00 0.00 0.00 38 1017.9
20260509123056 15 0 0.0 9.7 0.00 0.00 0.00 38 1017.7
20260509122554 15 0 6.4 9.7 0.00 0.00 0.00 38 1017.7
20260509122054 14 0 0.0 9.7 0.00 0.00 0.00 41 1017.7
20260509121556 15 0 3.2 9.7 0.00 0.00 0.00 39 1017.7
20260509121059 15 0 0.0 1.6 0.00 0.00 0.00 37 1017.6
20260509120555 15 0 0.0 8.0 0.00 0.00 0.00 35 1017.4
20260509120059 15 0 0.0 9.7 0.00 0.00 0.00 38 1017.5
20260509115556 15 176 0.0 9.7 0.00 0.00 0.00 37 1017.5
20260509115054 15 0 0.0 4.8 0.00 0.00 0.00 37 1017.4
20260509114555 15 0 0.0 4.8 0.00 0.00 0.00 38 1017.4
20260509114058 14 0 0.0 0.0 0.00 0.00 0.00 38 1017.4
20260509113557 13 0 0.0 0.0 0.00 0.00 0.00 41 1017.4
20260509113058 13 0 0.0 0.0 0.00 0.00 0.00 43 1017.4
20260509112554 13 0 0.0 0.0 0.00 0.00 0.00 42 1017.3
20260509112055 13 0 0.0 0.0 0.00 0.00 0.00 42 1017.4
20260509111558 14 0 0.0 0.0 0.00 0.00 0.00 40 1017.3
20260509111055 15 0 0.0 0.0 0.00 0.00 0.00 39 1017.4
20260509110556 15 0 0.0 0.0 0.00 0.00 0.00 38 1017.4
20260509110055 16 0 0.0 0.0 0.00 0.00 0.00 36 1017.4
20260509105556 16 0 0.0 0.0 0.00 0.00 0.00 35 1017.4
20260509105055 16 0 0.0 0.0 0.00 0.00 0.00 33 1017.4
20260509104609 16 0 0.0 0.0 0.00 0.00 0.00 34 1017.4
20260509104059 16 0 0.0 0.0 0.00 0.00 0.00 34 1017.3
20260509103554 15 0 0.0 0.0 0.00 0.00 0.00 38 1017.3
20260509103110 14 0 0.0 0.0 0.00 0.00 0.00 39 1017.3
20260509102554 13 0 0.0 0.0 0.00 0.00 0.00 44 1017.3
20260509102055 13 0 0.0 0.0 0.00 0.00 0.00 43 1017.3
20260509101558 13 0 0.0 0.0 0.00 0.00 0.00 43 1017.3
20260509101054 14 0 0.0 0.0 0.00 0.00 0.00 41 1017.4
20260509100555 15 0 0.0 0.0 0.00 0.00 0.00 39 1017.4
20260509100100 15 0 0.0 0.0 0.00 0.00 0.00 38 1017.4
20260509095555 15 0 0.0 0.0 0.00 0.00 0.00 39 1017.4
20260509095055 15 0 0.0 0.0 0.00 0.00 0.00 39 1017.4
20260509094558 15 0 0.0 0.0 0.00 0.00 0.00 40 1017.4
20260509094056 14 0 0.0 0.0 0.00 0.00 0.00 40 1017.4
20260509093555 14 0 0.0 0.0 0.00 0.00 0.00 41 1017.5
20260509093103 14 0 0.0 0.0 0.00 0.00 0.00 40 1017.4
20260509092554 14 0 0.0 0.0 0.00 0.00 0.00 41 1017.5
20260509092056 14 0 0.0 0.0 0.00 0.00 0.00 40 1017.5
20260509091607 14 0 0.0 0.0 0.00 0.00 0.00 38 1017.5
20260509091054 15 0 0.0 0.0 0.00 0.00 0.00 39 1017.5
20260509090554 15 0 0.0 0.0 0.00 0.00 0.00 39 1017.6
20260509090059 15 0 0.0 0.0 0.00 0.00 0.00 38 1017.6
20260509085556 15 0 0.0 0.0 0.00 0.00 0.00 38 1017.6
20260509085055 15 0 0.0 0.0 0.00 0.00 0.00 39 1017.5
20260509084608 15 0 0.0 0.0 0.00 0.00 0.00 40 1017.5
20260509084054 16 0 0.0 0.0 0.00 0.00 0.00 38 1017.3
20260509083555 16 0 0.0 0.0 0.00 0.00 0.00 33 1017.3
20260509083059 17 0 0.0 0.0 0.00 0.00 0.00 33 1017.3
20260509082554 17 0 0.0 0.0 0.00 0.00 0.00 32 1017.3
20260509082055 18 0 0.0 0.0 0.00 0.00 0.00 30 1017.3
20260509081600 18 0 0.0 0.0 0.00 0.00 0.00 29 1017.4
20260509081055 18 0 0.0 0.0 0.00 0.00 0.00 28 1017.2
20260509080554 18 0 0.0 0.0 0.00 0.00 0.00 28 1017.3
20260509080059 18 0 0.0 0.0 0.00 0.00 0.00 29 1017.2